Home > Weather > Wood Buffalo > Past weeks

Flag for Canada Past Weather in Wood Buffalo, Alberta, Canada — Yesterday and Last 2 Weeks

Now
57 °F

Mostly cloudy.


Feels Like: 57 °F
Forecast: 60 / 83 °F
Wind: 2 mph from Southwest

Location: Fort Mcmurray

Current Time: Jul 29, 2016 at 6:18:55 AM

Latest Report: Jul 29, 2016 at 6:00 AM


Visibility: 9 mi

Pressure: 29.95 "Hg

Humidity: 94%

Dew Point: 55 °F

Location of Wood BuffaloLocation

Past Weather in Wood Buffalo — Graph

°F

Wood Buffalo Temperature Yesterday

Maximum temperature yesterday: 81 °F (at 3:00 PM)
Minimum temperature yesterday: 61 °F (at 5:51 AM)
Average temperature yesterday: 70 °F

High & Low Weather Summary for the Past Weeks

 TemperatureHumidityPressure
High88 °F (Jul 19, 5:00 PM)100% (Jul 20, 6:00 AM)30.22 "Hg (Jul 20, 6:00 AM)
Low41 °F (Jul 22, 4:00 AM)24% (Jul 15, 4:00 PM)29.59 "Hg (Jul 19, 5:00 PM)
Average66 °F65%29.91 "Hg
* Reported Jul 14 5:00 AM — Jul 29 5:00 AM, Wood Buffalo, Weather by CustomWeather, © 2016

Note: Actual official high and low records may vary slightly from our data, if they occured in-between our weather recording intervals... More about our weather records

Advertising

Wood Buffalo Weather History for the Previous 24 Hours

Scroll right to see more
 ConditionsComfort  
Time TempWeatherWind HumidityBarometerVisibility
5:00 AM
Fri, Jul 29
57 °FOvercast.7 mph94%29.95 "Hg9 mi
4:00 AM59 °FMostly cloudy.5 mph94%29.95 "Hg9 mi
3:00 AM61 °FPassing clouds.No wind88%29.95 "Hg9 mi
2:00 AM63 °FOvercast.6 mph88%29.97 "Hg9 mi
1:48 AM63 °FMostly cloudy.3 mph83%29.98 "Hg9 mi
1:00 AM63 °FMostly cloudy.6 mph83%29.98 "Hg9 mi
12:00 AM64 °FOvercast.9 mph73%29.98 "Hg9 mi
11:00 PM
Thu, Jul 28
64 °FOvercast.2 mph78%30.00 "Hg9 mi
10:00 PM66 °FMostly cloudy.No wind73%30.01 "Hg9 mi
9:00 PM66 °FOvercast.6 mph68%29.99 "Hg9 mi
8:00 PM70 °FPartly sunny.16 mph57%30.00 "Hg9 mi
7:00 PM79 °FOvercast.5 mph45%29.98 "Hg9 mi
6:00 PM81 °FSunny.5 mph39%29.97 "Hg9 mi
5:00 PM81 °FSunny.6 mph39%29.98 "Hg9 mi
4:00 PM81 °FScattered clouds.7 mph39%30.00 "Hg9 mi
3:00 PM81 °FSunny.6 mph45%30.01 "Hg9 mi
2:00 PM77 °FPassing clouds.7 mph51%30.03 "Hg9 mi
1:00 PM73 °FPartly sunny.3 mph57%30.05 "Hg9 mi
12:00 PM73 °FPartly sunny.No wind53%30.06 "Hg9 mi
11:00 AM73 °FSunny.7 mph57%30.07 "Hg9 mi
10:00 AM70 °FPassing clouds.2 mph69%30.07 "Hg9 mi
9:00 AM66 °FPassing clouds.2 mph78%30.09 "Hg9 mi
8:00 AM64 °FScattered clouds.7 mph83%30.09 "Hg9 mi
7:00 AM63 °FMostly cloudy.No wind88%30.09 "Hg9 mi
6:00 AM63 °FOvercast.3 mph88%30.09 "Hg9 mi
Weather by CustomWeather, © 2016

See weather overviewHow to use our weather pages